Home   Weather   Thusis   Past weeks

Flag for Switzerland Past Weather in Thusis, Graubünden, Switzerland — Yesterday and Last 2 Weeks

Now
17 °F

Cold.


Feels Like: 17 °F
Forecast: -3 / 33 °F
Wind: 2 mph from Southwest

Location: Chur

Current Time: Jan 23, 2017 at 10:25:21 pm

Latest Report: Jan 23, 2017 at 9:00 pm


Visibility: N/A

Pressure: 30.34 "Hg (27.65 "Hg at 718m altitude)

Humidity: 95%

Dew Point: 16 °F

Location of ThusisLocation

Past Weather in Thusis — Graph

°F

Thusis Temperature Yesterday

Maximum temperature yesterday: 46 °F (at 3:00 pm)
Minimum temperature yesterday: 21 °F (at 6:00 pm)
Average temperature yesterday: 32 °F

High & Low Weather Summary for the Past Weeks

 TemperatureHumidityPressure
High46 °F (Jan 22, 3:00 pm)96% (Jan 23, 8:00 pm)30.61 "Hg (Jan 23, 8:00 pm)
Low9 °F (Jan 18, 8:00 am)30% (Jan 22, 3:00 pm)29.54 "Hg (Jan 13, 2:00 am)
Average25 °F77%30.25 "Hg
* Reported Jan 8 9:00 pm — Jan 23 9:00 pm, Thusis, Weather by CustomWeather, © 2017

Note: Actual official high and low records may vary slightly from our data, if they occured in-between our weather recording intervals... More about our weather records

Advertising

Thusis Weather History for the Previous 24 Hours

Scroll right to see more
 ConditionsComfort  
Time TempWeatherWind HumidityBarometerVisibility
9:00 pm
Mon, Jan 23
17 °FCold.2 mph95%30.34 "HgN/A
8:00 pm17 °FCold.1 mph96%30.36 "HgN/A
7:00 pm18 °FFog.3 mph94%30.34 "Hg1 mi
6:00 pm19 °FCold.7 mph92%30.32 "HgN/A
5:00 pm21 °FCold.6 mph89%30.30 "HgN/A
4:00 pm23 °FScattered clouds.9 mph83%30.27 "Hg6 mi
3:00 pm25 °FCold.12 mph72%30.26 "HgN/A
2:00 pm24 °FCold.12 mph71%30.27 "HgN/A
1:00 pm24 °FScattered clouds.14 mph70%30.27 "Hg12 mi
12:00 pm25 °FCold.12 mph66%30.28 "HgN/A
11:00 am22 °FCold.8 mph66%30.31 "HgN/A
10:00 am25 °FSunny.1 mph63%30.30 "Hg16 mi
9:00 am22 °FCold.2 mph69%30.32 "HgN/A
8:00 am20 °FCold.1 mph72%30.32 "HgN/A
7:00 am25 °FClear.3 mph59%30.30 "Hg7 mi
6:00 am26 °FChilly.6 mph56%30.29 "HgN/A
5:00 am22 °FCold.1 mph73%30.32 "HgN/A
4:00 am25 °FClear.1 mph71%30.31 "Hg12 mi
3:00 am29 °FChilly.6 mph54%30.30 "HgN/A
2:00 am26 °FChilly.1 mph68%30.32 "HgN/A
1:00 am29 °FClear.1 mph59%30.31 "Hg12 mi
12:00 am31 °FChilly.5 mph54%30.31 "HgN/A
11:00 pm
Sun, Jan 22
33 °FChilly.5 mph51%30.30 "HgN/A
10:00 pm34 °FClear.9 mph48%30.28 "Hg12 mi
Weather by CustomWeather, © 2017

See weather overviewHow to use our weather pages